Tracking 22094 objects as of 17-Jan-2021
HD Live streaming from Space Station
objects crossing your sky now

OSCAR 15 (UOSAT 4)

Track OSCAR 15 (UOSAT 4) now!
10-day predictions
OSCAR 15 (UOSAT 4) is classified as:


NORAD ID: 20438
Int'l Code: 1990-005C
Perigee: 788.1 km
Apogee: 802.5 km
Inclination: 98.9 °
Period: 100.6 minutes
Semi major axis: 7166 km
RCS: 0.311 m2 (medium)
Launch date: January 22, 1990
Source: United Kingdom (UK)
Launch site: FRENCH GUIANA (FRGUI)

Uplink (MHz):
Downlink (MHz):
Beacon (MHz): 435.120
Mode: CW
Call sign:
Status: Reentered

aabbcc
Your satellite tracking list
Your tracking list is empty




NASA's NSSDC Master Catalog

Two Line Element Set (TLE):
1 20438U 90005C   21016.86580706 -.00000017  00000-0  11185-4 0  9990
2 20438  98.8918   2.2846 0010049   9.9887  48.0965 14.31070041617365
Source of the keplerian elements: AFSPC